This is the latest recevied weather packets stored in our database for station/object K5OBH. If no packets are shown the sender has not sent any weather packets the latest 10 day(s).
| Time | Temp. | Humidity | Pressure | Rain* | Wind** | Luminosity | Snow |
|---|---|---|---|---|---|---|---|
| 1777945719 | 25° C | 67% | 1001.3 hPa | 0 mm | - | 0 W/m² | - |
| 1777945416 | 25° C | 67% | 1001.6 hPa | 0 mm | - | 0 W/m² | - |
| 1777945112 | 25° C | 67% | 1001.5 hPa | 0 mm | - | 0 W/m² | - |
| 1777944809 | 25° C | 66% | 1001.5 hPa | 0 mm | - | 0 W/m² | - |
| 1777944508 | 25° C | 66% | 1001.1 hPa | 0 mm | - | 1 W/m² | - |
| 1777944205 | 25° C | 66% | 1001.4 hPa | 0 mm | - | 1 W/m² | - |
| 1777943900 | 25° C | 65% | 1001.4 hPa | 0 mm | - | 2 W/m² | - |
| 1777943598 | 25° C | 65% | 1001.3 hPa | 0 mm | - | 4 W/m² | - |
| 1777943294 | 25.56° C | 65% | 1001.4 hPa | 0 mm | - | 5 W/m² | - |
| 1777942990 | 25.56° C | 65% | 1001.2 hPa | 0 mm | - | 7 W/m² | - |
| 1777942686 | 25.56° C | 64% | 1001.4 hPa | 0 mm | - | 10 W/m² | - |
| 1777942384 | 25.56° C | 64% | 1001.7 hPa | 0 mm | - | 13 W/m² | - |
| 1777942081 | 25.56° C | 64% | 1001.7 hPa | 0 mm | - | 18 W/m² | - |
| 1777941776 | 25.56° C | 64% | 1001.5 hPa | 0 mm | - | 24 W/m² | - |
| 1777941474 | 25.56° C | 63% | 1001.6 hPa | 0 mm | - | 27 W/m² | - |
| 1777941172 | 26.11° C | 63% | 1001.7 hPa | 0 mm | - | 32 W/m² | - |
| 1777940868 | 26.11° C | 63% | 1001.6 hPa | 0 mm | - | 41 W/m² | - |
| 1777940565 | 26.11° C | 62% | 1001.6 hPa | 0 mm | - | 56 W/m² | - |
| 1777940263 | 26.67° C | 62% | 1001.7 hPa | 0 mm | - | 73 W/m² | - |
| 1777939960 | 26.11° C | 62% | 1001.7 hPa | 0 mm | - | 76 W/m² | - |
| 1777939657 | 26.67° C | 62% | 1001.5 hPa | 0 mm | - | 69 W/m² | - |
| 1777939355 | 26.67° C | 62% | 1001.8 hPa | 0 mm | - | 80 W/m² | - |
| 1777939051 | 26.67° C | 61% | 1001.8 hPa | 0 mm | - | 105 W/m² | - |
| 1777938747 | 26.67° C | 62% | 1001.8 hPa | 0 mm | - | 104 W/m² | - |
| 1777938445 | 26.67° C | 61% | 1002 hPa | 0 mm | - | 110 W/m² | - |
* Rain latest hour (hover to see other rain measurements)
** Current wind speed in m/s (hover to see current wind gust speed)